﻿測定場所 (Monitoring sites),日付 (Measurement date),時間 (Measurement time),線量率 最大値 (max) μGy/h,線量率 最小値 (min) μGy/h,線量率 平均値 (average) μGy/h,
足立 (Adachi),2013-06-09,23:01～24:00,0.0608,0.0521,0.0556,
足立 (Adachi),2013-06-09,22:01～23:00,0.0585,0.0527,0.0557,
足立 (Adachi),2013-06-09,21:01～22:00,0.0587,0.0533,0.0559,
足立 (Adachi),2013-06-09,20:01～21:00,0.0591,0.0527,0.0556,
足立 (Adachi),2013-06-09,19:01～20:00,0.0586,0.0527,0.0556,
足立 (Adachi),2013-06-09,18:01～19:00,0.0600,0.0515,0.0560,
足立 (Adachi),2013-06-09,17:01～18:00,0.0600,0.0520,0.0561,
足立 (Adachi),2013-06-09,16:01～17:00,0.0609,0.0523,0.0558,
足立 (Adachi),2013-06-09,15:01～16:00,0.0594,0.0512,0.0562,
足立 (Adachi),2013-06-09,14:01～15:00,0.0583,0.0529,0.0558,
足立 (Adachi),2013-06-09,13:01～14:00,0.0599,0.0523,0.0562,
足立 (Adachi),2013-06-09,12:01～13:00,0.0598,0.0507,0.0559,
足立 (Adachi),2013-06-09,11:01～12:00,0.0594,0.0525,0.0561,
足立 (Adachi),2013-06-09,10:01～11:00,0.0612,0.0536,0.0563,
足立 (Adachi),2013-06-09,09:01～10:00,0.0590,0.0524,0.0563,
足立 (Adachi),2013-06-09,08:01～09:00,0.0607,0.0523,0.0563,
足立 (Adachi),2013-06-09,07:01～08:00,0.0594,0.0526,0.0562,
足立 (Adachi),2013-06-09,06:01～07:00,0.0589,0.0527,0.0556,
足立 (Adachi),2013-06-09,05:01～06:00,0.0593,0.0518,0.0556,
足立 (Adachi),2013-06-09,04:01～05:00,0.0581,0.0520,0.0553,
足立 (Adachi),2013-06-09,03:01～04:00,0.0594,0.0524,0.0554,
足立 (Adachi),2013-06-09,02:01～03:00,0.0580,0.0513,0.0556,
足立 (Adachi),2013-06-09,01:01～02:00,0.0594,0.0510,0.0555,
足立 (Adachi),2013-06-09,00:01～01:00,0.0584,0.0522,0.0556,
足立 (Adachi),2013-06-08,23:01～24:00,0.0585,0.0527,0.0554,
足立 (Adachi),2013-06-08,22:01～23:00,0.0594,0.0512,0.0557,
足立 (Adachi),2013-06-08,21:01～22:00,0.0590,0.0506,0.0552,
足立 (Adachi),2013-06-08,20:01～21:00,0.0581,0.0506,0.0551,
足立 (Adachi),2013-06-08,19:01～20:00,0.0587,0.0518,0.0555,
足立 (Adachi),2013-06-08,18:01～19:00,0.0588,0.0523,0.0555,
足立 (Adachi),2013-06-08,17:01～18:00,0.0586,0.0511,0.0552,
足立 (Adachi),2013-06-08,16:01～17:00,0.0585,0.0515,0.0554,
足立 (Adachi),2013-06-08,15:01～16:00,0.0584,0.0522,0.0549,
足立 (Adachi),2013-06-08,14:01～15:00,0.0578,0.0505,0.0554,
足立 (Adachi),2013-06-08,13:01～14:00,0.0579,0.0524,0.0549,
足立 (Adachi),2013-06-08,12:01～13:00,0.0581,0.0518,0.0548,
足立 (Adachi),2013-06-08,11:01～12:00,0.0594,0.0523,0.0552,
足立 (Adachi),2013-06-08,10:01～11:00,0.0590,0.0516,0.0551,
足立 (Adachi),2013-06-08,09:01～10:00,0.0583,0.0514,0.0548,
足立 (Adachi),2013-06-08,08:01～09:00,0.0600,0.0515,0.0551,
足立 (Adachi),2013-06-08,07:01～08:00,0.0586,0.0519,0.0545,
足立 (Adachi),2013-06-08,06:01～07:00,0.0583,0.0516,0.0549,
足立 (Adachi),2013-06-08,05:01～06:00,0.0583,0.0523,0.0560,
足立 (Adachi),2013-06-08,04:01～05:00,0.0598,0.0521,0.0552,
足立 (Adachi),2013-06-08,03:01～04:00,0.0588,0.0523,0.0552,
足立 (Adachi),2013-06-08,02:01～03:00,0.0607,0.0523,0.0571,
足立 (Adachi),2013-06-08,01:01～02:00,0.0620,0.0551,0.0585,
足立 (Adachi),2013-06-08,00:01～01:00,0.0589,0.0506,0.0558,
足立 (Adachi),2013-06-07,23:01～24:00,0.0589,0.0521,0.0552,
足立 (Adachi),2013-06-07,22:01～23:00,0.0592,0.0506,0.0554,
足立 (Adachi),2013-06-07,21:01～22:00,0.0581,0.0521,0.0550,
足立 (Adachi),2013-06-07,20:01～21:00,0.0571,0.0522,0.0548,
足立 (Adachi),2013-06-07,19:01～20:00,0.0580,0.0513,0.0551,
足立 (Adachi),2013-06-07,18:01～19:00,0.0588,0.0511,0.0544,
足立 (Adachi),2013-06-07,17:01～18:00,0.0581,0.0508,0.0542,
足立 (Adachi),2013-06-07,16:01～17:00,0.0590,0.0510,0.0551,
足立 (Adachi),2013-06-07,15:01～16:00,0.0580,0.0516,0.0551,
足立 (Adachi),2013-06-07,14:01～15:00,0.0605,0.0523,0.0551,
足立 (Adachi),2013-06-07,13:01～14:00,0.0583,0.0513,0.0546,
足立 (Adachi),2013-06-07,12:01～13:00,0.0596,0.0503,0.0550,
足立 (Adachi),2013-06-07,11:01～12:00,0.0585,0.0511,0.0545,
足立 (Adachi),2013-06-07,10:01～11:00,0.0574,0.0509,0.0545,
足立 (Adachi),2013-06-07,09:01～10:00,0.0582,0.0504,0.0540,
足立 (Adachi),2013-06-07,08:01～09:00,0.0577,0.0511,0.0543,
足立 (Adachi),2013-06-07,07:01～08:00,0.0575,0.0510,0.0540,
足立 (Adachi),2013-06-07,06:01～07:00,0.0577,0.0513,0.0547,
足立 (Adachi),2013-06-07,05:01～06:00,0.0582,0.0514,0.0550,
足立 (Adachi),2013-06-07,04:01～05:00,0.0583,0.0515,0.0549,
足立 (Adachi),2013-06-07,03:01～04:00,0.0601,0.0522,0.0549,
足立 (Adachi),2013-06-07,02:01～03:00,0.0586,0.0520,0.0550,
足立 (Adachi),2013-06-07,01:01～02:00,0.0579,0.0513,0.0551,
足立 (Adachi),2013-06-07,00:01～01:00,0.0592,0.0524,0.0550,
足立 (Adachi),2013-06-06,23:01～24:00,0.0588,0.0514,0.0552,
足立 (Adachi),2013-06-06,22:01～23:00,0.0583,0.0514,0.0548,
足立 (Adachi),2013-06-06,21:01～22:00,0.0571,0.0509,0.0547,
足立 (Adachi),2013-06-06,20:01～21:00,0.0577,0.0519,0.0543,
足立 (Adachi),2013-06-06,19:01～20:00,0.0577,0.0506,0.0544,
足立 (Adachi),2013-06-06,18:01～19:00,0.0596,0.0515,0.0542,
足立 (Adachi),2013-06-06,17:01～18:00,0.0586,0.0511,0.0550,
足立 (Adachi),2013-06-06,16:01～17:00,0.0577,0.0505,0.0548,
足立 (Adachi),2013-06-06,15:01～16:00,0.0576,0.0511,0.0547,
足立 (Adachi),2013-06-06,14:01～15:00,0.0585,0.0515,0.0547,
足立 (Adachi),2013-06-06,13:01～14:00,0.0586,0.0519,0.0544,
足立 (Adachi),2013-06-06,12:01～13:00,0.0581,0.0515,0.0547,
足立 (Adachi),2013-06-06,11:01～12:00,0.0580,0.0507,0.0545,
足立 (Adachi),2013-06-06,10:01～11:00,0.0573,0.0487,0.0547,
足立 (Adachi),2013-06-06,09:01～10:00,0.0586,0.0511,0.0549,
足立 (Adachi),2013-06-06,08:01～09:00,0.0573,0.0517,0.0540,
足立 (Adachi),2013-06-06,07:01～08:00,0.0582,0.0492,0.0546,
足立 (Adachi),2013-06-06,06:01～07:00,0.0581,0.0507,0.0545,
足立 (Adachi),2013-06-06,05:01～06:00,0.0572,0.0509,0.0545,
足立 (Adachi),2013-06-06,04:01～05:00,0.0575,0.0513,0.0544,
足立 (Adachi),2013-06-06,03:01～04:00,0.0574,0.0516,0.0545,
足立 (Adachi),2013-06-06,02:01～03:00,0.0578,0.0514,0.0543,
足立 (Adachi),2013-06-06,01:01～02:00,0.0574,0.0520,0.0546,
足立 (Adachi),2013-06-06,00:01～01:00,0.0575,0.0523,0.0553,
足立 (Adachi),2013-06-05,23:01～24:00,0.0584,0.0506,0.0553,
足立 (Adachi),2013-06-05,22:01～23:00,0.0587,0.0513,0.0547,
足立 (Adachi),2013-06-05,21:01～22:00,0.0577,0.0520,0.0548,
足立 (Adachi),2013-06-05,20:01～21:00,0.0577,0.0513,0.0548,
足立 (Adachi),2013-06-05,19:01～20:00,0.0594,0.0508,0.0549,
足立 (Adachi),2013-06-05,18:01～19:00,0.0589,0.0515,0.0556,
足立 (Adachi),2013-06-05,17:01～18:00,0.0570,0.0515,0.0546,
足立 (Adachi),2013-06-05,16:01～17:00,0.0601,0.0515,0.0550,
足立 (Adachi),2013-06-05,15:01～16:00,0.0581,0.0508,0.0549,
足立 (Adachi),2013-06-05,14:01～15:00,0.0584,0.0511,0.0542,
足立 (Adachi),2013-06-05,13:01～14:00,0.0590,0.0511,0.0551,
足立 (Adachi),2013-06-05,12:01～13:00,0.0582,0.0513,0.0544,
足立 (Adachi),2013-06-05,11:01～12:00,0.0581,0.0520,0.0549,
足立 (Adachi),2013-06-05,10:01～11:00,0.0592,0.0506,0.0556,
足立 (Adachi),2013-06-05,09:01～10:00,0.0593,0.0510,0.0550,
足立 (Adachi),2013-06-05,08:01～09:00,0.0582,0.0521,0.0552,
足立 (Adachi),2013-06-05,07:01～08:00,0.0586,0.0519,0.0550,
足立 (Adachi),2013-06-05,06:01～07:00,0.0577,0.0513,0.0543,
足立 (Adachi),2013-06-05,05:01～06:00,0.0577,0.0523,0.0546,
足立 (Adachi),2013-06-05,04:01～05:00,0.0579,0.0520,0.0550,
足立 (Adachi),2013-06-05,03:01～04:00,0.0580,0.0516,0.0550,
足立 (Adachi),2013-06-05,02:01～03:00,0.0588,0.0513,0.0547,
足立 (Adachi),2013-06-05,01:01～02:00,0.0583,0.0518,0.0549,
足立 (Adachi),2013-06-05,00:01～01:00,0.0587,0.0504,0.0549,
足立 (Adachi),2013-06-04,23:01～24:00,0.0584,0.0508,0.0547,
足立 (Adachi),2013-06-04,22:01～23:00,0.0582,0.0512,0.0547,
足立 (Adachi),2013-06-04,21:01～22:00,0.0579,0.0512,0.0548,
足立 (Adachi),2013-06-04,20:01～21:00,0.0584,0.0515,0.0548,
足立 (Adachi),2013-06-04,19:01～20:00,0.0598,0.0519,0.0550,
足立 (Adachi),2013-06-04,18:01～19:00,0.0582,0.0524,0.0553,
足立 (Adachi),2013-06-04,17:01～18:00,0.0590,0.0515,0.0552,
足立 (Adachi),2013-06-04,16:01～17:00,0.0582,0.0513,0.0549,
足立 (Adachi),2013-06-04,15:01～16:00,0.0626,0.0513,0.0551,
足立 (Adachi),2013-06-04,14:01～15:00,0.0586,0.0516,0.0552,
足立 (Adachi),2013-06-04,13:01～14:00,0.0578,0.0507,0.0546,
足立 (Adachi),2013-06-04,12:01～13:00,0.0578,0.0501,0.0546,
足立 (Adachi),2013-06-04,11:01～12:00,0.0578,0.0517,0.0550,
足立 (Adachi),2013-06-04,10:01～11:00,0.0585,0.0521,0.0548,
足立 (Adachi),2013-06-04,09:01～10:00,0.0584,0.0507,0.0546,
足立 (Adachi),2013-06-04,08:01～09:00,0.0572,0.0514,0.0545,
足立 (Adachi),2013-06-04,07:01～08:00,0.0582,0.0514,0.0547,
足立 (Adachi),2013-06-04,06:01～07:00,0.0579,0.0519,0.0550,
足立 (Adachi),2013-06-04,05:01～06:00,0.0581,0.0524,0.0549,
足立 (Adachi),2013-06-04,04:01～05:00,0.0580,0.0493,0.0544,
足立 (Adachi),2013-06-04,03:01～04:00,0.0568,0.0495,0.0528,
足立 (Adachi),2013-06-04,02:01～03:00,0.0571,0.0494,0.0526,
足立 (Adachi),2013-06-04,01:01～02:00,0.0555,0.0491,0.0528,
足立 (Adachi),2013-06-04,00:01～01:00,0.0561,0.0495,0.0523,
足立 (Adachi),2013-06-03,23:01～24:00,0.0565,0.0491,0.0522,
足立 (Adachi),2013-06-03,22:01～23:00,0.0553,0.0497,0.0523,
足立 (Adachi),2013-06-03,21:01～22:00,0.0555,0.0478,0.0522,
足立 (Adachi),2013-06-03,20:01～21:00,0.0547,0.0489,0.0522,
足立 (Adachi),2013-06-03,19:01～20:00,0.0569,0.0498,0.0534,
足立 (Adachi),2013-06-03,18:01～19:00,0.0588,0.0507,0.0546,
足立 (Adachi),2013-06-03,17:01～18:00,0.0579,0.0516,0.0546,
足立 (Adachi),2013-06-03,16:01～17:00,0.0586,0.0510,0.0548,
足立 (Adachi),2013-06-03,15:01～16:00,0.0587,0.0520,0.0549,
足立 (Adachi),2013-06-03,14:01～15:00,0.0580,0.0514,0.0547,
足立 (Adachi),2013-06-03,13:01～14:00,0.0569,0.0508,0.0542,
足立 (Adachi),2013-06-03,12:01～13:00,0.0599,0.0508,0.0547,
足立 (Adachi),2013-06-03,11:01～12:00,0.0577,0.0508,0.0543,
足立 (Adachi),2013-06-03,10:01～11:00,0.0577,0.0508,0.0546,
足立 (Adachi),2013-06-03,09:01～10:00,0.0579,0.0504,0.0545,
足立 (Adachi),2013-06-03,08:01～09:00,0.0587,0.0516,0.0543,
足立 (Adachi),2013-06-03,07:01～08:00,0.0573,0.0503,0.0545,
足立 (Adachi),2013-06-03,06:01～07:00,0.0574,0.0507,0.0543,
足立 (Adachi),2013-06-03,05:01～06:00,0.0581,0.0515,0.0547,
足立 (Adachi),2013-06-03,04:01～05:00,0.0570,0.0510,0.0540,
足立 (Adachi),2013-06-03,03:01～04:00,0.0572,0.0490,0.0540,
足立 (Adachi),2013-06-03,02:01～03:00,0.0574,0.0515,0.0544,
足立 (Adachi),2013-06-03,01:01～02:00,0.0581,0.0506,0.0542,
足立 (Adachi),2013-06-03,00:01～01:00,0.0587,0.0518,0.0546,
